This demonstration page uses our WeatherBlox Daily Observations layout. Learn more.

Left ArrowRight Arrow

39.01783, -85.05884

Hourly Observations for March 19, 2017

Temp ( °F °C ) Dew Point ( °F °C ) Humidity (%) Winds ( mph kmh ) Pressure ( in mb ) Visibility ( mi km ) Precip ( " mm )
12:52 am 00:52 Mostly Cloudy 36 2.2 31 -0.6 82 82 WNW 7 11 30.27 1025 10 16 0.00 0.00
1:52 am 01:52 Mostly Cloudy 36 2.2 31 -0.6 82 82 NW 7 11 30.28 1025 10 16 0.00 0.00
2:52 am 02:52 Cloudy 37 2.8 32 0 82 82 NNW 7 11 30.28 1025 10 16 0.00 0.00
3:20 am 03:20 Cloudy 37 2.8 31 -0.6 79 79 NNW 8 13 30.33 1027 10 16 0.00 0.00
3:52 am 03:52 Cloudy 36 2.2 31 -0.6 82 82 NNW 6 9 30.28 1025 10 16 0.00 0.00
4:52 am 04:52 Clear 33 0.6 30 -1.1 89 89 Calm 30.28 1025 10 16 0.00 0.00
5:25 am 05:25 Mostly Cloudy 32 0 30 -1.1 92 92 NNW 6 9 30.33 1027 10 16 0.00 0.00
5:52 am 05:52 Cloudy 35 1.7 31 -0.6 85 85 N 9 15 30.30 1026 10 16 0.00 0.00
6:52 am 06:52 Cloudy 35 1.7 31 -0.6 85 85 NNW 8 13 30.32 1027 10 16 0.00 0.00
7:36 am 07:36 Cloudy 36 2 30 -1 81 81 NW 7 11 30.39 1029 10 16 0.00 0.00
7:52 am 07:52 Cloudy 35 1.7 31 -0.6 85 85 WNW 7 11 30.34 1027 10 16 0.00 0.00
8:52 am 08:52 Cloudy 36 2.2 32 0 86 86 NW 6 9 30.35 1028 10 16 0.00 0.00
9:52 am 09:52 Cloudy 39 3.9 32 0 76 76 N 10 17 30.37 1028 10 16 0.00 0.00
10:52 am 10:52 Cloudy 41 5 32 0 70 70 NNE 7 11 30.38 1029 10 16 0.00 0.00
11:52 am 11:52 Cloudy 42 5.6 32 0 68 68 undefined N/A 30.39 1029 10 16 0.00 0.00
12:52 pm 12:52 Cloudy 42 5.6 31 -0.6 65 65 Calm 30.39 1029 10 16 0.00 0.00
1:52 pm 13:52 Cloudy 44 6.7 31 -0.6 60 60 Calm 30.38 1029 10 16 0.00 0.00
2:29 pm 14:29 Cloudy 45 7.2 31 -0.6 58 58 NW 3 6 30.39 1029 10 16 0.00 0.00
2:52 pm 14:52 Cloudy 46 7.8 31 -0.6 56 56 NNE 5 7 30.35 1028 10 16 0.00 0.00
3:52 pm 15:52 Mostly Cloudy 47 8.3 31 -0.6 54 54 Calm 30.32 1027 10 16 0.00 0.00
4:52 pm 16:52 Mostly Cloudy 49 9.4 31 -0.6 50 50 VRB 3 6 30.32 1027 10 16 0.00 0.00
5:52 pm 17:52 Partly Cloudy 48 8.9 31 -0.6 52 52 SW 3 6 30.29 1026 10 16 0.00 0.00
6:52 pm 18:52 Partly Cloudy 47 8.3 30 -1.1 52 52 SW 5 7 30.29 1026 10 16 0.00 0.00
7:52 pm 19:52 Mostly Clear 44 6.7 30 -1.1 58 58 Calm 30.29 1026 10 16 0.00 0.00
8:52 pm 20:52 Mostly Clear 40 4.4 31 -0.6 70 70 SE 3 6 30.28 1025 10 16 0.00 0.00
9:52 pm 21:52 Clear 39 3.9 30 -1.1 70 70 Calm 30.27 1025 10 16 0.00 0.00
10:52 pm 22:52 Clear 37 2.8 30 -1.1 76 76 SE 5 7 30.26 1025 10 16 0.00 0.00
11:52 pm 23:52 Clear 38 3.3 30 -1.1 73 73 SE 3 6 30.25 1024 10 16 0.00 0.00

Powered by AerisWeather